Regional Weather Roundup
Issued by NWS Charleston, SC

Current Version | Previous Version | Text Only | Print | Product List | Glossary On
Versions: 1 2 3 4 5 6 7 8 9 10 11 12 13 14 15 16 17 18 19 20 21 22 23 24 25 26 27 28 29 30 31 32 33 34 35 36 37 38 39 40 41 42 43 44 45 46 47 48 49 50
000 ASUS42 KCHS 200625 RWRCHS REGIONAL WEATHER ROUNDUP NATIONAL WEATHER SERVICE CHARLESTON SC 200 AM EDT WED AUG 20 2014 NOTE: "FAIR" INDICATES FEW OR NO CLOUDS BELOW 12,000 FEET WITH NO SIGNIFICANT WEATHER AND/OR OBSTRUCTIONS TO VISIBILITY. NOT ALL STATIONS ARE QUALITY CONTROLLED BY THE NATIONAL WEATHER SERVICE. USE DATA WITH CAUTION...ESPECIALLY DEWPOINT OBSERVATIONS. SCZ027-030-031-034>040-042>050-200700- ...SOUTH CAROLINA... CITY SKY/WX TMP DP RH WIND PRES REMARKS N CHARLESTON FAIR 78 74 87 SW8 29.91S 6HR MIN TEMP: 78; 6HR MAX TEMP: 83; WATERFRONT PRK N/A 79 N/A N/A SW7 N/A FORT JOHNSON NOT AVBL MOUNT PLEASANT FAIR 79 75 89 W8 29.90F JOHNS ISLAND CLEAR 77 75 94 CALM 29.91F PINOPOLIS N/A 79 75 89 SW7 29.83R MONCKS CORNER N/A 77 75 94 SW7 29.90F SUMMERVILLE FAIR 75 75 100 SW3 29.92S BEAUFORT MCAS FAIR 76 72 87 NW9 29.93S 6HR MIN TEMP: 76; 6HR MAX TEMP: 82; BEAUFORT ARPT FAIR 77 73 88 W10 29.92F HILTON HEAD IS FAIR 75 72 88 SW13 29.94F GEORGETOWN NOT AVBL WALTERBORO FAIR 75 N/A N/A W6 29.93S ORANGEBURG FAIR 74 71 91 CALM 29.92S 6HR MIN TEMP: 74; 6HR MAX TEMP: 83; BARNWELL FAIR 73 72 94 SW5 29.93S AIKEN FAIR 73 73 100 SW6 29.95F MANNING FAIR 77 N/A N/A CALM 29.90S KINGSTREE NOT AVBL COLUMBIA FAIR 77 71 82 W7 29.90S 6HR MIN TEMP: 76; 6HR MAX TEMP: 87; SUMTER CLOUDY 76 73 89 W5 29.89R 6HR MIN TEMP: 76; 6HR MAX TEMP: 84; FLORENCE FAIR 75 73 93 CALM 29.89F 6HR MIN TEMP: 75; 6HR MAX TEMP: 81; 6HR PCP: TRACE; MYRTLE BEACH FAIR 79 73 83 W6 29.89S N MYRTLE BEACH MOCLDY 76 74 93 CALM 29.89S 6HR MIN TEMP: 75; 6HR MAX TEMP: 78; $$ GAZ063-065-086>088-099>101-113>116-118-119-134-136>141-150-200700- ...GEORGIA... CITY SKY/WX TMP DP RH WIND PRES REMARKS SAVANNAH ARPT FAIR 74 70 87 W9 29.96S 6HR MIN TEMP: 74; 6HR MAX TEMP: 80; HUNTER AAF FAIR 74 70 88 SW9 29.94S 6HR MIN TEMP: 74; 6HR MAX TEMP: 80; FORT STEWART FAIR 73 69 87 W10 29.96S 6HR MIN TEMP: 73; 6HR MAX TEMP: 81; STATESBORO NOT AVBL SYLVANIA FAIR 74 74 98 SW3 29.94F CLAXTON FAIR 73 73 100 W5 29.96F THOMSON FAIR 76 75 99 CALM 29.97F AUGUSTA-BUSH FAIR 72 70 93 S5 29.92S 6HR MIN TEMP: 72; 6HR MAX TEMP: 81; AUGUSTA-DANIEL FAIR 77 71 82 W5 29.93F SWAINSBORO FAIR 75 75 100 CALM 29.96F VIDALIA N/A 72 72 100 SW5 29.96F ALMA FAIR 71 70 96 SW5 29.97F 6HR MIN TEMP: 71; 6HR MAX TEMP: 73; WAYCROSS FAIR 77 74 93 SW3 29.98F JESUP N/A 75 72 88 W3 29.98S BRUNSWICK NOT AVBL SAINT SIMONS FAIR 77 72 84 W6 29.98S 6HR MIN TEMP: 77; 6HR MAX TEMP: 80; $$ SCZ027-028-034-036>038-045-046-048>050-GAZ119-141-200700- ...LAKE AND SUPPLEMENTAL COASTAL OBSERVATIONS... STATION/POSITION TIME TEMP WIND PRES WAVE SWELL AIR SEA DIR/SP/G HT/PER HT/PER/DIR (UTC) (F) (DEG/KT/KT) (MB) (FT/S) (FT/S/D) UPR LAKE MARION NOT AVBL WINYAH BAY 0600 78 240/ 5 1012.0S LAKE MURRAY 0500 78 290/ 3/ 5 1012.2R ACE BASIN NERRS 0600 77 250/ 2 1013.0S FORT PULASKI 0600 76 240/ 8/ 12 1014.2F SAPELO ISLAND 0600 77 250/ 10 1015.0S $$ ANZ835-935-AMZ111-154-330-350-352-354-374-450-454-472-200700- ...C-MAN AND BUOY OBSERVATIONS... STATION/POSITION TIME TEMP WIND PRES WAVE SWELL AIR SEA DIR/SP/G HT/PER HT/PER/DIR (UTC) (F) (DEG/KT/KT) (MB) (FT/S) (FT/S/D) FOLLY BEACH CMAN 0600 77 240/ 6/ 9 1013.3F BUOY 41004 0600 83 83 240/ 12/ 16 1011.9F 4/ 5 2/ 8 BUOY 41008 0600 82 85 280/ 19/ 23 1014.3S 3/ 4 5E ST. MARYS GA 0600 81 N/A 1/ 2 FRYING PAN BUOY NOT AVBL BUOY 41025 0600 79 290/ 4/ 6 1010.7R 3/ 7 2/200/ 7 CAPE LOOKOUT NC 0600 80 340/ 5/ 6 1010.4F BUOY 41002 0536 81 81 230/ 17/ 23 1013.9F 5/ 7 2/ 90/11 BUOY 41010 0600 84 86 180/ 14/ 16 1016.0F 2/ 8 2/120/ 8 BUOY 41012 NOT AVBL ST AUGUSTINE FL 0600 79 270/ 5/ 7 1016.9R CAPERS NEARSHORE 0500 82 270/ 14/ 16 N/A FRIPP NEARSHORE NOT AVBL $$

USA.gov is the U.S. government's official web portal to all federal, state and local government web resources and services.